Hourly Data Report for October 26, 2013

All times are specified in Local Standard Time (LST). Add 1 hour to adjust for Daylight Saving Time where and when it is observed.

KUGAARUK CLIMATE
NUNAVUT

68°32'15.060" N
89°47'47.020" W
15.80 m
2303094
71407
NBB

Download Data

Hourly Data (October 2013)
Hourly Data Report for October 26, 2013
Temp Definition
°C
Dew Point Temp Definition
°C
Rel Hum Definition
%
Wind Dir Definition
10's deg

Wind Spd Definition
km/h
Visibility Definition
km
Stn Press Definition
kPa
Hmdx Definition


Wind Chill Definition


Weather Definition


TIME
00:00 -8.5 -10.6 85 30 20   100.22   -16 LegendNANA
01:00 -8.6 -10.5 86 31 26   100.20   -17 LegendNANA
02:00 -8.3 -10.1 87 31 20   100.22   -16 LegendNANA
03:00 -8.9 -10.7 87 32 19   100.24   -16 LegendNANA
04:00 -9.6 -11.3 87 30 11   100.30   -15 LegendNANA
05:00 -9.3 -11.0 87 28 13   100.31   -15 LegendNANA
06:00 -9.0 -10.6 88 32 20   100.30   -17 LegendNANA
07:00 -8.9 -10.5 88 33 19   100.34   -16 LegendNANA
08:00 -9.1 -11.1 85 31 13   100.36   -15 LegendNANA
09:00 -7.9 -9.9 86 32 17   100.38   -15 LegendNANA
10:00 -8.0 -10.3 83 29 13   100.42   -14 LegendNANA
11:00 -8.5 -10.8 83 30 19   100.44   -16 LegendNANA
12:00 -8.2 -10.2 85 32 15   100.48   -15 LegendNANA
13:00 -8.0 -9.8 87 28 7   100.52   -12 LegendNANA
14:00 -7.4 -9.2 87 32 15   100.54   -14 LegendNANA
15:00 -7.6 -9.3 88 30 17   100.59   -14 LegendNANA
16:00 -8.0 -10.1 85 2 13   100.65   -14 LegendNANA
17:00 -8.0 -11.2 78 35 22   100.67   -16 LegendNANA
18:00 -8.5 -11.5 79 36 22   100.72   -16 LegendNANA
19:00 -9.3 -11.9 81 35 26   100.78   -18 LegendNANA
20:00 -10.3 -12.4 85 32 24   100.78   -19 LegendNANA
21:00 -10.8 -13.0 84 32 24   100.81   -20 LegendNANA
22:00 -12.0 -14.4 82 31 26   100.84   -22 LegendNANA
23:00 -12.9 -15.5 81 29 17   100.85   -21 LegendNANA

Notes on Data Quality.

Legend

  • E = Estimated
  • M = Missing
  • NA = Not Available
  • ‡ = Partner data that is not subject to review by the National Climate Archives
Date modified: